When you browse on this site, cookies collect data to enhance your experience and personalize the content and advertising you see.
Visit our Privacy Policy to learn more. By continuing to use the site, you agree to this use of cookies and data.
  • In Hungary
  • List of Countries
  • For 7 days
  • Water Temperature
  • Satellite Maps
  • Weather Map
  • News
  • Weather Widgets
  • user-avatar
    Login

    Hourly Weather Morka

    Today, 18 January, Friday

    Time Temperature Precipitation Wind Pressure Humidity
    00:00 +2°C° 0 mm 7 mps 744 mmHg 78%
    01:00 0°C° 0 mm 7 mps 744 mmHg 79%
    02:00 0°C° 0 mm 7 mps 744 mmHg 78%
    03:00 -1°C° 0 mm 7 mps 745 mmHg 78%
    04:00 -2°C° 0 mm 6 mps 745 mmHg 78%
    05:00 -2°C° 0 mm 6 mps 746 mmHg 80%
    06:00 -2°C° 0 mm 6 mps 747 mmHg 81%
    07:00 -2°C° 0 mm 7 mps 748 mmHg 83%
    08:00 -2°C° 0.2 mm 7 mps 749 mmHg 81%
    09:00 -2°C° 0.2 mm 7 mps 750 mmHg 79%
    10:00 -2°C° 0.2 mm 7 mps 751 mmHg 77%
    11:00 -2°C° 0 mm 7 mps 752 mmHg 73%
    12:00 -2°C° 0 mm 6 mps 753 mmHg 70%
    13:00 -2°C° 0 mm 6 mps 754 mmHg 66%
    14:00 -1°C° 0 mm 5 mps 754 mmHg 68%
    15:00 -2°C° 0 mm 4 mps 755 mmHg 69%
    16:00 -2°C° 0 mm 4 mps 755 mmHg 71%
    17:00 -2°C° 0 mm 3 mps 756 mmHg 74%
    18:00 -2°C° 0 mm 3 mps 756 mmHg 78%
    19:00 -4°C° 0 mm 3 mps 756 mmHg 82%
    20:00 -4°C° 0 mm 3 mps 756 mmHg 82%
    21:00 -2°C° 0 mm 3 mps 757 mmHg 81%
    22:00 -2°C° 0 mm 3 mps 757 mmHg 81%
    23:00 -2°C° 0 mm 3 mps 757 mmHg 82%

    Tomorrow, 19 January, Saturday

    Time Temperature Precipitation Wind Pressure Humidity
    00:00 -3°C° 0 mm 4 mps 757 mmHg 82%
    01:00 -3°C° 0 mm 4 mps 757 mmHg 82%
    02:00 -2°C° 0 mm 3 mps 757 mmHg 84%
    03:00 -4°C° 0 mm 3 mps 757 mmHg 85%
    04:00 -4°C° 0 mm 3 mps 758 mmHg 87%
    05:00 -3°C° 0 mm 2 mps 758 mmHg 88%
    06:00 -3°C° 0 mm 2 mps 758 mmHg 89%
    07:00 -3°C° 0 mm 2 mps 758 mmHg 91%
    08:00 -3°C° 0 mm 2 mps 758 mmHg 88%
    09:00 -2°C° 0 mm 2 mps 758 mmHg 85%
    10:00 -2°C° 0 mm 2 mps 758 mmHg 82%
    11:00 -1°C° 0 mm 2 mps 758 mmHg 76%
    12:00 +2°C° 0 mm 1 mps 758 mmHg 71%
    13:00 +3°C° 0 mm 1 mps 758 mmHg 65%
    14:00 +2°C° 0 mm 1 mps 758 mmHg 68%
    15:00 +1°C° 0 mm 1 mps 758 mmHg 71%
    16:00 +1°C° 0 mm 1 mps 757 mmHg 75%
    17:00 0°C° 0 mm 1 mps 757 mmHg 76%
    18:00 0°C° 0 mm 1 mps 757 mmHg 78%
    19:00 0°C° 0 mm 1 mps 757 mmHg 80%
    20:00 0°C° 0 mm 1 mps 757 mmHg 80%
    21:00 -1°C° 0 mm 1 mps 757 mmHg 81%
    22:00 -3°C° 0 mm 2 mps 757 mmHg 82%
    23:00 -1°C° 0 mm 1 mps 757 mmHg 81%

    Day after tomorrow, 20 January, Sunday

    Time Temperature Precipitation Wind Pressure Humidity
    00:00 -1°C° 0 mm 1 mps 757 mmHg 80%
    01:00 -1°C° 0 mm 1 mps 757 mmHg 79%
    02:00 -1°C° 0 mm 1 mps 756 mmHg 78%
    03:00 -1°C° 0 mm 1 mps 756 mmHg 77%
    04:00 -2°C° 0 mm 1 mps 756 mmHg 75%
    05:00 -2°C° 0 mm 1 mps 756 mmHg 75%
    06:00 -2°C° 0 mm 1 mps 756 mmHg 75%
    07:00 -2°C° 0 mm 1 mps 756 mmHg 74%
    08:00 -1°C° 0 mm 1 mps 756 mmHg 71%
    09:00 -1°C° 0 mm 1 mps 756 mmHg 69%
    10:00 0°C° 0 mm 1 mps 756 mmHg 66%
    11:00 -1°C° 0 mm 0 mps 756 mmHg 63%
    12:00 0°C° 0 mm 0 mps 756 mmHg 60%
    13:00 +1°C° 0 mm 0 mps 756 mmHg 57%
    14:00 +1°C° 0 mm 1 mps 756 mmHg 61%
    15:00 0°C° 0 mm 1 mps 756 mmHg 64%
    16:00 0°C° 0 mm 1 mps 756 mmHg 68%
    17:00 -1°C° 0 mm 1 mps 757 mmHg 71%
    18:00 -1°C° 0 mm 1 mps 757 mmHg 74%
    19:00 -1°C° 0 mm 1 mps 757 mmHg 77%
    20:00 -1°C° 0 mm 1 mps 758 mmHg 78%
    21:00 -2°C° 0 mm 1 mps 758 mmHg 80%
    22:00 -4°C° 0 mm 2 mps 758 mmHg 82%
    23:00 -4°C° 0 mm 2 mps 759 mmHg 84%

    21 January, Monday

    Time Temperature Precipitation Wind Pressure Humidity
    00:00 -4°C° 0 mm 2 mps 759 mmHg 86%
    01:00 -4°C° 0 mm 2 mps 759 mmHg 88%
    02:00 -4°C° 0 mm 2 mps 759 mmHg 89%
    03:00 -4°C° 0 mm 2 mps 759 mmHg 91%
    04:00 -4°C° 0 mm 2 mps 759 mmHg 92%
    05:00 -4°C° 0 mm 2 mps 760 mmHg 92%
    06:00 -4°C° 0 mm 2 mps 760 mmHg 92%
    07:00 -4°C° 0 mm 2 mps 760 mmHg 93%
    08:00 -4°C° 0 mm 2 mps 760 mmHg 89%
    09:00 -3°C° 0 mm 2 mps 761 mmHg 86%
    10:00 -3°C° 0 mm 2 mps 761 mmHg 83%
    11:00 -2°C° 0 mm 3 mps 761 mmHg 79%
    12:00 -1°C° 0 mm 3 mps 760 mmHg 75%
    13:00 -1°C° 0 mm 3 mps 760 mmHg 71%
    14:00 -1°C° 0 mm 3 mps 760 mmHg 73%
    15:00 -2°C° 0 mm 3 mps 760 mmHg 76%
    16:00 -2°C° 0 mm 2 mps 760 mmHg 79%
    17:00 -4°C° 0 mm 3 mps 760 mmHg 79%
    18:00 -4°C° 0 mm 3 mps 759 mmHg 80%
    19:00 -4°C° 0 mm 3 mps 759 mmHg 80%
    20:00 -4°C° 0 mm 3 mps 759 mmHg 79%
    21:00 -4°C° 0 mm 4 mps 759 mmHg 77%
    22:00 -4°C° 0 mm 4 mps 759 mmHg 75%
    23:00 -4°C° 0 mm 4 mps 758 mmHg 73%

    22 January, Tuesday

    Time Temperature Precipitation Wind Pressure Humidity
    00:00 -4°C° 0 mm 4 mps 757 mmHg 70%
    01:00 -4°C° 0 mm 4 mps 757 mmHg 68%
    02:00 -5°C° 0 mm 4 mps 756 mmHg 66%
    03:00 -5°C° 0 mm 4 mps 756 mmHg 64%
    04:00 -5°C° 0 mm 4 mps 755 mmHg 62%
    05:00 -5°C° 0 mm 3 mps 755 mmHg 62%
    06:00 -5°C° 0 mm 3 mps 754 mmHg 62%
    07:00 -5°C° 0 mm 3 mps 753 mmHg 63%
    08:00 -5°C° 0 mm 4 mps 753 mmHg 60%
    09:00 -4°C° 0 mm 4 mps 752 mmHg 57%
    10:00 -3°C° 0 mm 4 mps 752 mmHg 54%
    11:00 -4°C° 0 mm 5 mps 751 mmHg 52%
    12:00 -2°C° 0 mm 5 mps 750 mmHg 49%
    13:00 -1°C° 0 mm 5 mps 749 mmHg 47%
    14:00 -2°C° 0 mm 5 mps 748 mmHg 48%
    15:00 -2°C° 0 mm 5 mps 747 mmHg 50%
    16:00 -2°C° 0 mm 5 mps 746 mmHg 51%
    17:00 -4°C° 0 mm 5 mps 746 mmHg 53%
    18:00 -4°C° 0 mm 6 mps 745 mmHg 54%
    19:00 -4°C° 0 mm 6 mps 745 mmHg 56%
    20:00 -4°C° 0 mm 6 mps 744 mmHg 58%
    21:00 -5°C° 0 mm 5 mps 744 mmHg 60%
    22:00 -5°C° 0 mm 5 mps 743 mmHg 62%
    23:00 -5°C° 0 mm 5 mps 743 mmHg 63%

    23 January, Wednesday

    Time Temperature Precipitation Wind Pressure Humidity
    00:00 -5°C° 0 mm 5 mps 742 mmHg 64%
    01:00 -5°C° 0 mm 5 mps 742 mmHg 64%
    02:00 -4°C° 0 mm 4 mps 742 mmHg 65%
    03:00 -4°C° 0 mm 4 mps 741 mmHg 66%
    04:00 -4°C° 0 mm 4 mps 741 mmHg 68%
    05:00 -5°C° 0 mm 3 mps 740 mmHg 69%
    06:00 -5°C° 0 mm 3 mps 740 mmHg 71%
    07:00 -5°C° 0 mm 3 mps 740 mmHg 73%
    08:00 -4°C° 0 mm 3 mps 740 mmHg 72%
    09:00 -4°C° 0 mm 3 mps 739 mmHg 71%
    10:00 -2°C° 0 mm 3 mps 739 mmHg 69%
    11:00 -2°C° 0 mm 3 mps 739 mmHg 68%
    12:00 -1°C° 0 mm 3 mps 738 mmHg 67%
    13:00 -1°C° 0 mm 3 mps 738 mmHg 66%
    14:00 -1°C° 0 mm 3 mps 737 mmHg 70%
    15:00 -2°C° 0 mm 3 mps 737 mmHg 74%
    16:00 -2°C° 0 mm 2 mps 737 mmHg 77%
    17:00 -2°C° 0 mm 2 mps 737 mmHg 80%
    18:00 -2°C° 0 mm 3 mps 737 mmHg 83%
    19:00 -2°C° 0 mm 3 mps 737 mmHg 86%
    20:00 -2°C° 0.2 mm 3 mps 737 mmHg 89%
    21:00 -2°C° 0.2 mm 2 mps 736 mmHg 91%
    22:00 -2°C° 0.2 mm 2 mps 736 mmHg 94%
    23:00 -2°C° 0.3 mm 3 mps 736 mmHg 93%
    Show more